Time,TemperatureF,DewpointF,PressureIn,WindDirection,WindDirectionDegrees,WindSpeedMPH,WindSpeedGustMPH,Humidity,HourlyPrecipIn,Conditions,Clouds,dailyrainin,SoftwareType,DateUTC
2013-02-09 00:00:00,32.0,28.0,30.37,NE,45,6.0,12.0,85,0.00,,,0.00,Rainwise IP-100,2013-02-09 06:00:00,
2013-02-09 00:05:00,32.0,28.0,30.37,East,90,4.0,12.0,85,0.00,,,0.00,Rainwise IP-100,2013-02-09 06:05:00,
2013-02-09 00:08:00,32.0,28.0,30.37,NE,45,11.0,12.0,85,0.00,,,0.00,Rainwise IP-100,2013-02-09 06:08:00,
2013-02-09 00:13:00,32.0,28.0,30.37,NE,45,6.0,11.0,85,0.00,,,0.00,Rainwise IP-100,2013-02-09 06:13:00,
2013-02-09 00:18:00,32.0,28.0,30.37,NE,45,9.0,12.0,85,0.00,,,0.00,Rainwise IP-100,2013-02-09 06:18:00,
2013-02-09 00:23:00,32.0,28.0,30.37,NE,45,9.0,12.0,85,0.00,,,0.00,Rainwise IP-100,2013-02-09 06:23:00,
2013-02-09 00:28:00,32.0,28.0,30.37,NE,45,9.0,12.0,85,0.00,,,0.00,Rainwise IP-100,2013-02-09 06:28:00,
2013-02-09 00:33:00,32.0,28.0,30.37,NE,45,13.0,15.0,85,0.00,,,0.00,Rainwise IP-100,2013-02-09 06:33:00,
2013-02-09 00:38:00,32.0,28.0,30.36,ENE,67,11.0,13.0,85,0.00,,,0.00,Rainwise IP-100,2013-02-09 06:38:00,
2013-02-09 00:42:00,32.0,28.0,30.36,East,90,3.0,17.0,85,0.00,,,0.00,Rainwise IP-100,2013-02-09 06:42:00,
2013-02-09 00:45:00,32.0,28.0,30.36,NE,45,13.0,18.0,85,0.00,,,0.00,Rainwise IP-100,2013-02-09 06:45:00,
2013-02-09 00:51:00,32.0,28.0,30.36,ENE,67,5.0,15.0,85,0.00,,,0.00,Rainwise IP-100,2013-02-09 06:51:00,
2013-02-09 00:56:00,32.0,28.0,30.36,NE,45,6.0,10.0,85,0.00,,,0.00,Rainwise IP-100,2013-02-09 06:56:00,
2013-02-09 01:01:00,32.0,28.0,30.37,NE,45,10.0,12.0,85,0.00,,,0.00,Rainwise IP-100,2013-02-09 07:01:00,
2013-02-09 01:06:00,32.0,28.0,30.37,NE,45,8.0,16.0,85,0.00,,,0.00,Rainwise IP-100,2013-02-09 07:06:00,
2013-02-09 01:11:00,32.0,28.0,30.37,ENE,67,4.0,15.0,85,0.00,,,0.00,Rainwise IP-100,2013-02-09 07:11:00,
2013-02-09 01:16:00,32.0,28.0,30.37,SSE,157,4.0,15.0,85,0.00,,,0.00,Rainwise IP-100,2013-02-09 07:16:00,
2013-02-09 01:21:00,32.0,28.0,30.37,ENE,67,10.0,13.0,85,0.00,,,0.00,Rainwise IP-100,2013-02-09 07:21:00,
2013-02-09 01:26:00,32.0,28.0,30.37,NE,45,9.0,12.0,85,0.00,,,0.00,Rainwise IP-100,2013-02-09 07:26:00,
2013-02-09 01:31:00,32.0,28.0,30.37,NE,45,5.0,14.0,86,0.00,,,0.00,Rainwise IP-100,2013-02-09 07:31:00,
2013-02-09 01:36:00,32.0,28.0,30.37,NE,45,7.0,13.0,85,0.00,,,0.00,Rainwise IP-100,2013-02-09 07:36:00,
2013-02-09 01:41:00,32.0,28.0,30.36,East,90,5.0,12.0,85,0.00,,,0.00,Rainwise IP-100,2013-02-09 07:41:00,
2013-02-09 01:46:00,32.0,28.0,30.36,SE,135,4.0,15.0,85,0.00,,,0.00,Rainwise IP-100,2013-02-09 07:46:00,
2013-02-09 01:51:00,32.0,28.0,30.36,ENE,67,4.0,14.0,85,0.00,,,0.00,Rainwise IP-100,2013-02-09 07:51:00,
2013-02-09 01:56:00,32.0,28.0,30.36,ENE,67,9.0,12.0,85,0.00,,,0.00,Rainwise IP-100,2013-02-09 07:56:00,
2013-02-09 02:01:00,32.0,28.0,30.37,NE,45,7.0,13.0,85,0.00,,,0.00,Rainwise IP-100,2013-02-09 08:01:00,
2013-02-09 02:06:00,32.0,28.0,30.37,ENE,67,5.0,12.0,85,0.00,,,0.00,Rainwise IP-100,2013-02-09 08:06:00,
2013-02-09 02:11:00,32.0,28.0,30.36,ENE,67,7.0,12.0,86,0.00,,,0.00,Rainwise IP-100,2013-02-09 08:11:00,
2013-02-09 02:16:00,32.0,28.0,30.36,ENE,67,10.0,13.0,85,0.00,,,0.00,Rainwise IP-100,2013-02-09 08:16:00,
2013-02-09 02:21:00,32.0,28.0,30.36,East,90,6.0,12.0,85,0.00,,,0.00,Rainwise IP-100,2013-02-09 08:21:00,
2013-02-09 02:26:00,31.0,26.0,30.36,ESE,112,7.0,15.0,85,0.00,,,0.00,Rainwise IP-100,2013-02-09 08:26:00,
2013-02-09 02:31:00,32.0,28.0,30.36,NE,45,11.0,12.0,86,0.00,,,0.00,Rainwise IP-100,2013-02-09 08:31:00,
2013-02-09 02:36:00,32.0,28.0,30.36,East,90,2.0,11.0,86,0.00,,,0.00,Rainwise IP-100,2013-02-09 08:36:00,
2013-02-09 02:41:00,32.0,28.0,30.35,East,90,7.0,13.0,86,0.00,,,0.00,Rainwise IP-100,2013-02-09 08:41:00,
2013-02-09 02:46:00,32.0,28.0,30.35,ENE,67,5.0,10.0,86,0.00,,,0.00,Rainwise IP-100,2013-02-09 08:46:00,
2013-02-09 02:51:00,31.0,26.0,30.35,ESE,112,10.0,12.0,85,0.00,,,0.00,Rainwise IP-100,2013-02-09 08:51:00,
2013-02-09 02:56:00,31.0,26.0,30.35,East,90,7.0,13.0,85,0.00,,,0.00,Rainwise IP-100,2013-02-09 08:56:00,
2013-02-09 03:01:00,31.0,26.0,30.35,NNE,22,8.0,15.0,85,0.00,,,0.00,Rainwise IP-100,2013-02-09 09:01:00,
2013-02-09 03:06:00,31.0,26.0,30.35,East,90,13.0,15.0,85,0.00,,,0.00,Rainwise IP-100,2013-02-09 09:06:00,
2013-02-09 03:11:00,31.0,26.0,30.35,ESE,112,6.0,17.0,85,0.00,,,0.00,Rainwise IP-100,2013-02-09 09:11:00,
2013-02-09 03:16:00,31.0,26.0,30.35,NE,45,11.0,13.0,85,0.00,,,0.00,Rainwise IP-100,2013-02-09 09:16:00,
2013-02-09 03:21:00,31.0,28.0,30.35,ENE,67,8.0,12.0,86,0.00,,,0.00,Rainwise IP-100,2013-02-09 09:21:00,
2013-02-09 03:26:00,31.0,26.0,30.35,ENE,67,9.0,9.0,85,0.00,,,0.00,Rainwise IP-100,2013-02-09 09:26:00,
2013-02-09 03:31:00,31.0,28.0,30.35,ENE,67,4.0,12.0,86,0.00,,,0.00,Rainwise IP-100,2013-02-09 09:31:00,
2013-02-09 03:36:00,31.0,26.0,30.35,NE,45,12.0,15.0,85,0.00,,,0.00,Rainwise IP-100,2013-02-09 09:36:00,
2013-02-09 03:41:00,31.0,26.0,30.35,NE,45,10.0,15.0,85,0.00,,,0.00,Rainwise IP-100,2013-02-09 09:41:00,
2013-02-09 03:46:00,31.0,26.0,30.35,NE,45,5.0,17.0,85,0.00,,,0.00,Rainwise IP-100,2013-02-09 09:46:00,
2013-02-09 03:51:00,31.0,28.0,30.35,East,90,6.0,15.0,86,0.00,,,0.00,Rainwise IP-100,2013-02-09 09:51:00,
2013-02-09 03:56:00,31.0,28.0,30.35,NE,45,10.0,12.0,86,0.00,,,0.00,Rainwise IP-100,2013-02-09 09:56:00,
2013-02-09 04:01:00,31.0,28.0,30.36,NE,45,4.0,12.0,86,0.00,,,0.00,Rainwise IP-100,2013-02-09 10:01:00,
2013-02-09 04:06:00,31.0,28.0,30.36,ENE,67,5.0,10.0,86,0.00,,,0.00,Rainwise IP-100,2013-02-09 10:06:00,
2013-02-09 04:11:00,31.0,28.0,30.37,NE,45,7.0,10.0,86,0.00,,,0.00,Rainwise IP-100,2013-02-09 10:11:00,
2013-02-09 04:16:00,31.0,28.0,30.37,ENE,67,1.0,10.0,86,0.00,,,0.00,Rainwise IP-100,2013-02-09 10:16:00,
2013-02-09 04:21:00,31.0,28.0,30.37,ENE,67,9.0,12.0,86,0.00,,,0.00,Rainwise IP-100,2013-02-09 10:21:00,
2013-02-09 04:26:00,31.0,28.0,30.37,ESE,112,1.0,10.0,86,0.00,,,0.00,Rainwise IP-100,2013-02-09 10:26:00,
2013-02-09 04:31:00,31.0,28.0,30.36,NE,45,7.0,10.0,86,0.00,,,0.00,Rainwise IP-100,2013-02-09 10:31:00,
2013-02-09 04:36:00,31.0,28.0,30.36,NW,315,0.0,11.0,86,0.00,,,0.00,Rainwise IP-100,2013-02-09 10:36:00,
2013-02-09 04:41:00,31.0,28.0,30.37,NE,45,12.0,13.0,86,0.00,,,0.00,Rainwise IP-100,2013-02-09 10:41:00,
2013-02-09 04:46:00,31.0,28.0,30.37,East,90,9.0,13.0,86,0.00,,,0.00,Rainwise IP-100,2013-02-09 10:46:00,
2013-02-09 04:51:00,31.0,28.0,30.37,ESE,112,1.0,12.0,86,0.00,,,0.00,Rainwise IP-100,2013-02-09 10:51:00,
2013-02-09 04:56:00,31.0,28.0,30.37,ENE,67,3.0,10.0,86,0.00,,,0.00,Rainwise IP-100,2013-02-09 10:56:00,
2013-02-09 05:01:00,31.0,26.0,30.37,NE,45,7.0,10.0,85,0.00,,,0.00,Rainwise IP-100,2013-02-09 11:01:00,
2013-02-09 05:06:00,31.0,26.0,30.37,NE,45,5.0,14.0,85,0.00,,,0.00,Rainwise IP-100,2013-02-09 11:06:00,
2013-02-09 05:11:00,31.0,26.0,30.37,East,90,6.0,11.0,85,0.00,,,0.00,Rainwise IP-100,2013-02-09 11:11:00,
2013-02-09 05:16:00,31.0,26.0,30.37,NE,45,10.0,15.0,85,0.00,,,0.00,Rainwise IP-100,2013-02-09 11:16:00,
2013-02-09 05:21:00,31.0,26.0,30.37,ENE,67,8.0,11.0,85,0.00,,,0.00,Rainwise IP-100,2013-02-09 11:21:00,
2013-02-09 05:26:00,31.0,26.0,30.37,ENE,67,7.0,14.0,85,0.00,,,0.00,Rainwise IP-100,2013-02-09 11:26:00,
2013-02-09 05:31:00,31.0,26.0,30.38,ENE,67,7.0,12.0,85,0.00,,,0.00,Rainwise IP-100,2013-02-09 11:31:00,
2013-02-09 05:36:00,31.0,26.0,30.38,NE,45,8.0,10.0,85,0.00,,,0.00,Rainwise IP-100,2013-02-09 11:36:00,
2013-02-09 05:41:00,31.0,26.0,30.37,NE,45,3.0,11.0,85,0.00,,,0.00,Rainwise IP-100,2013-02-09 11:41:00,
2013-02-09 05:46:00,31.0,26.0,30.37,East,90,4.0,8.0,85,0.00,,,0.00,Rainwise IP-100,2013-02-09 11:46:00,
2013-02-09 05:51:00,31.0,26.0,30.38,ESE,112,0.0,12.0,85,0.00,,,0.00,Rainwise IP-100,2013-02-09 11:51:00,
2013-02-09 05:56:00,31.0,26.0,30.38,ENE,67,9.0,13.0,84,0.00,,,0.00,Rainwise IP-100,2013-02-09 11:56:00,
2013-02-09 06:01:00,31.0,26.0,30.38,ENE,67,10.0,12.0,84,0.00,,,0.00,Rainwise IP-100,2013-02-09 12:01:00,
2013-02-09 06:06:00,31.0,26.0,30.38,ENE,67,9.0,19.0,84,0.00,,,0.00,Rainwise IP-100,2013-02-09 12:06:00,
2013-02-09 06:11:00,31.0,26.0,30.38,East,90,7.0,16.0,84,0.00,,,0.00,Rainwise IP-100,2013-02-09 12:11:00,
2013-02-09 06:16:00,31.0,26.0,30.38,NNE,22,6.0,13.0,84,0.00,,,0.00,Rainwise IP-100,2013-02-09 12:16:00,
2013-02-09 06:21:00,31.0,26.0,30.38,NE,45,8.0,15.0,84,0.00,,,0.00,Rainwise IP-100,2013-02-09 12:21:00,
2013-02-09 06:26:00,31.0,26.0,30.38,ENE,67,7.0,12.0,84,0.00,,,0.00,Rainwise IP-100,2013-02-09 12:26:00,
2013-02-09 06:31:00,31.0,26.0,30.38,NE,45,12.0,12.0,85,0.00,,,0.00,Rainwise IP-100,2013-02-09 12:31:00,
2013-02-09 06:36:00,31.0,26.0,30.38,NE,45,6.0,15.0,84,0.00,,,0.00,Rainwise IP-100,2013-02-09 12:36:00,
2013-02-09 06:41:00,31.0,26.0,30.38,East,90,11.0,12.0,85,0.00,,,0.00,Rainwise IP-100,2013-02-09 12:41:00,
2013-02-09 06:46:00,31.0,26.0,30.38,NE,45,7.0,15.0,84,0.00,,,0.00,Rainwise IP-100,2013-02-09 12:46:00,
2013-02-09 06:51:00,31.0,26.0,30.38,ENE,67,12.0,16.0,83,0.00,,,0.00,Rainwise IP-100,2013-02-09 12:51:00,
2013-02-09 06:56:00,31.0,26.0,30.38,East,90,13.0,16.0,84,0.00,,,0.00,Rainwise IP-100,2013-02-09 12:56:00,
2013-02-09 07:01:00,31.0,26.0,30.38,ESE,112,6.0,18.0,83,0.00,,,0.00,Rainwise IP-100,2013-02-09 13:01:00,
2013-02-09 07:06:00,31.0,26.0,30.38,WSW,247,0.0,15.0,82,0.00,,,0.00,Rainwise IP-100,2013-02-09 13:06:00,
2013-02-09 07:11:00,32.0,28.0,30.38,ENE,67,6.0,12.0,84,0.00,,,0.00,Rainwise IP-100,2013-02-09 13:11:00,
2013-02-09 07:16:00,32.0,28.0,30.38,ENE,67,7.0,9.0,83,0.00,,,0.00,Rainwise IP-100,2013-02-09 13:16:00,
2013-02-09 07:21:00,32.0,28.0,30.39,ENE,67,0.0,9.0,83,0.00,,,0.00,Rainwise IP-100,2013-02-09 13:21:00,
2013-02-09 07:26:00,32.0,28.0,30.39,East,90,8.0,11.0,82,0.00,,,0.00,Rainwise IP-100,2013-02-09 13:26:00,
2013-02-09 07:31:00,32.0,28.0,30.39,East,90,9.0,12.0,81,0.00,,,0.00,Rainwise IP-100,2013-02-09 13:31:00,
2013-02-09 07:36:00,32.0,28.0,30.39,SE,135,5.0,13.0,82,0.00,,,0.00,Rainwise IP-100,2013-02-09 13:36:00,
2013-02-09 07:41:00,32.0,28.0,30.39,ESE,112,11.0,12.0,81,0.00,,,0.00,Rainwise IP-100,2013-02-09 13:41:00,
2013-02-09 07:46:00,32.0,28.0,30.39,East,90,5.0,13.0,82,0.00,,,0.00,Rainwise IP-100,2013-02-09 13:46:00,
2013-02-09 07:51:00,32.0,28.0,30.38,SE,135,8.0,15.0,81,0.00,,,0.00,Rainwise IP-100,2013-02-09 13:51:00,
2013-02-09 07:56:00,32.0,28.0,30.38,NE,45,10.0,19.0,82,0.00,,,0.00,Rainwise IP-100,2013-02-09 13:56:00,
2013-02-09 08:01:00,32.0,28.0,30.39,East,90,9.0,18.0,81,0.00,,,0.00,Rainwise IP-100,2013-02-09 14:01:00,
2013-02-09 08:06:00,32.0,28.0,30.39,ESE,112,6.0,14.0,82,0.00,,,0.00,Rainwise IP-100,2013-02-09 14:06:00,
2013-02-09 08:11:00,33.0,28.0,30.38,NE,45,6.0,16.0,80,0.00,,,0.00,Rainwise IP-100,2013-02-09 14:11:00,
2013-02-09 08:16:00,33.0,28.0,30.38,ESE,112,7.0,16.0,79,0.00,,,0.00,Rainwise IP-100,2013-02-09 14:16:00,
2013-02-09 08:21:00,33.0,28.0,30.38,East,90,8.0,17.0,78,0.00,,,0.00,Rainwise IP-100,2013-02-09 14:21:00,
2013-02-09 08:26:00,34.0,29.0,30.38,NE,45,3.0,10.0,78,0.00,,,0.00,Rainwise IP-100,2013-02-09 14:26:00,
2013-02-09 08:31:00,34.0,28.0,30.37,East,90,6.0,9.0,77,0.00,,,0.00,Rainwise IP-100,2013-02-09 14:31:00,
2013-02-09 08:36:00,34.0,28.0,30.37,East,90,8.0,12.0,77,0.00,,,0.00,Rainwise IP-100,2013-02-09 14:36:00,
2013-02-09 08:41:00,34.0,28.0,30.38,East,90,10.0,14.0,76,0.00,,,0.00,Rainwise IP-100,2013-02-09 14:41:00,
2013-02-09 08:46:00,34.0,28.0,30.38,East,90,10.0,13.0,76,0.00,,,0.00,Rainwise IP-100,2013-02-09 14:46:00,
2013-02-09 08:51:00,35.0,28.0,30.39,East,90,3.0,12.0,76,0.00,,,0.00,Rainwise IP-100,2013-02-09 14:51:00,
2013-02-09 08:56:00,36.0,29.0,30.39,East,90,6.0,10.0,74,0.00,,,0.00,Rainwise IP-100,2013-02-09 14:56:00,
2013-02-09 09:01:00,37.0,31.0,30.39,SSE,157,4.0,10.0,75,0.00,,,0.00,Rainwise IP-100,2013-02-09 15:01:00,
2013-02-09 09:06:00,35.0,26.0,30.39,East,90,15.0,15.0,72,0.00,,,0.00,Rainwise IP-100,2013-02-09 15:06:00,
2013-02-09 09:11:00,36.0,29.0,30.39,ESE,112,7.0,15.0,74,0.00,,,0.00,Rainwise IP-100,2013-02-09 15:11:00,
2013-02-09 09:16:00,36.0,28.0,30.39,SE,135,6.0,12.0,73,0.00,,,0.00,Rainwise IP-100,2013-02-09 15:16:00,
2013-02-09 09:21:00,35.0,28.0,30.39,SE,135,6.0,15.0,73,0.00,,,0.00,Rainwise IP-100,2013-02-09 15:21:00,
2013-02-09 09:26:00,36.0,28.0,30.39,SE,135,8.0,16.0,73,0.00,,,0.00,Rainwise IP-100,2013-02-09 15:26:00,
2013-02-09 09:31:00,38.0,31.0,30.39,ENE,67,3.0,8.0,74,0.00,,,0.00,Rainwise IP-100,2013-02-09 15:31:00,
2013-02-09 09:36:00,37.0,29.0,30.39,East,90,8.0,12.0,72,0.00,,,0.00,Rainwise IP-100,2013-02-09 15:36:00,
2013-02-09 09:41:00,36.0,28.0,30.38,SE,135,7.0,18.0,71,0.00,,,0.00,Rainwise IP-100,2013-02-09 15:41:00,
2013-02-09 09:46:00,36.0,28.0,30.38,SSE,157,5.0,12.0,72,0.00,,,0.00,Rainwise IP-100,2013-02-09 15:46:00,
2013-02-09 09:51:00,38.0,31.0,30.39,ENE,67,5.0,13.0,72,0.00,,,0.00,Rainwise IP-100,2013-02-09 15:51:00,
2013-02-09 09:56:00,38.0,29.0,30.39,ENE,67,9.0,14.0,71,0.00,,,0.00,Rainwise IP-100,2013-02-09 15:56:00,
2013-02-09 10:01:00,37.0,28.0,30.37,ENE,67,7.0,12.0,70,0.00,,,0.00,Rainwise IP-100,2013-02-09 16:01:00,
2013-02-09 10:06:00,37.0,29.0,30.37,ESE,112,13.0,13.0,71,0.00,,,0.00,Rainwise IP-100,2013-02-09 16:06:00,
2013-02-09 10:11:00,38.0,29.0,30.37,SW,225,2.0,17.0,71,0.00,,,0.00,Rainwise IP-100,2013-02-09 16:11:00,
2013-02-09 10:16:00,38.0,29.0,30.37,NE,45,7.0,12.0,71,0.00,,,0.00,Rainwise IP-100,2013-02-09 16:16:00,
2013-02-09 10:21:00,38.0,29.0,30.37,South,180,9.0,11.0,70,0.00,,,0.00,Rainwise IP-100,2013-02-09 16:21:00,
2013-02-09 10:26:00,39.0,31.0,30.37,ESE,112,9.0,12.0,70,0.00,,,0.00,Rainwise IP-100,2013-02-09 16:26:00,
2013-02-09 10:31:00,39.0,31.0,30.37,West,270,4.0,14.0,70,0.00,,,0.00,Rainwise IP-100,2013-02-09 16:31:00,
2013-02-09 10:36:00,38.0,28.0,30.37,ESE,112,6.0,12.0,67,0.00,,,0.00,Rainwise IP-100,2013-02-09 16:36:00,
2013-02-09 10:41:00,39.0,29.0,30.35,West,270,1.0,10.0,68,0.00,,,0.00,Rainwise IP-100,2013-02-09 16:41:00,
2013-02-09 10:46:00,40.0,31.0,30.35,East,90,4.0,12.0,67,0.00,,,0.00,Rainwise IP-100,2013-02-09 16:46:00,
2013-02-09 10:51:00,39.0,29.0,30.35,East,90,9.0,14.0,67,0.00,,,0.00,Rainwise IP-100,2013-02-09 16:51:00,
2013-02-09 10:56:00,40.0,31.0,30.35,East,90,13.0,13.0,67,0.00,,,0.00,Rainwise IP-100,2013-02-09 16:56:00,
2013-02-09 11:01:00,40.0,31.0,30.35,East,90,9.0,16.0,67,0.00,,,0.00,Rainwise IP-100,2013-02-09 17:01:00,
2013-02-09 11:06:00,41.0,31.0,30.35,WSW,247,1.0,14.0,65,0.00,,,0.00,Rainwise IP-100,2013-02-09 17:06:00,
2013-02-09 11:11:00,41.0,31.0,30.33,NE,45,5.0,10.0,65,0.00,,,0.00,Rainwise IP-100,2013-02-09 17:11:00,
2013-02-09 11:16:00,41.0,31.0,30.33,East,90,10.0,11.0,64,0.00,,,0.00,Rainwise IP-100,2013-02-09 17:16:00,
2013-02-09 11:21:00,43.0,32.0,30.34,East,90,1.0,10.0,64,0.00,,,0.00,Rainwise IP-100,2013-02-09 17:21:00,
2013-02-09 11:26:00,44.0,31.0,30.34,South,180,4.0,7.0,59,0.00,,,0.00,Rainwise IP-100,2013-02-09 17:26:00,
2013-02-09 11:31:00,43.0,31.0,30.33,ESE,112,10.0,10.0,61,0.00,,,0.00,Rainwise IP-100,2013-02-09 17:31:00,
2013-02-09 11:36:00,43.0,31.0,30.33,East,90,9.0,15.0,60,0.00,,,0.00,Rainwise IP-100,2013-02-09 17:36:00,
2013-02-09 11:41:00,42.0,29.0,30.31,ENE,67,9.0,13.0,59,0.00,,,0.00,Rainwise IP-100,2013-02-09 17:41:00,
2013-02-09 11:46:00,42.0,29.0,30.31,ESE,112,9.0,13.0,60,0.00,,,0.00,Rainwise IP-100,2013-02-09 17:46:00,
2013-02-09 11:51:00,43.0,31.0,30.31,NE,45,6.0,19.0,61,0.00,,,0.00,Rainwise IP-100,2013-02-09 17:51:00,
2013-02-09 11:56:00,41.0,29.0,30.31,SE,135,6.0,16.0,62,0.00,,,0.00,Rainwise IP-100,2013-02-09 17:56:00,
2013-02-09 12:01:00,43.0,31.0,30.31,NE,45,12.0,13.0,62,0.00,,,0.00,Rainwise IP-100,2013-02-09 18:01:00,
2013-02-09 12:06:00,44.0,32.0,30.31,ENE,67,16.0,16.0,63,0.00,,,0.00,Rainwise IP-100,2013-02-09 18:06:00,
2013-02-09 12:11:00,44.0,31.0,30.29,NE,45,2.0,16.0,59,0.00,,,0.00,Rainwise IP-100,2013-02-09 18:11:00,
2013-02-09 12:16:00,43.0,29.0,30.29,NE,45,7.0,14.0,58,0.00,,,0.00,Rainwise IP-100,2013-02-09 18:16:00,
2013-02-09 12:21:00,44.0,31.0,30.29,North,360,6.0,12.0,60,0.00,,,0.00,Rainwise IP-100,2013-02-09 18:21:00,
2013-02-09 12:26:00,44.0,32.0,30.29,North,360,3.0,12.0,61,0.00,,,0.00,Rainwise IP-100,2013-02-09 18:26:00,
2013-02-09 12:31:00,44.0,31.0,30.28,East,90,15.0,15.0,57,0.00,,,0.00,Rainwise IP-100,2013-02-09 18:31:00,
2013-02-09 12:36:00,44.0,31.0,30.28,ENE,67,9.0,16.0,59,0.00,,,0.00,Rainwise IP-100,2013-02-09 18:36:00,
2013-02-09 12:41:00,44.0,31.0,30.27,East,90,6.0,13.0,58,0.00,,,0.00,Rainwise IP-100,2013-02-09 18:41:00,
2013-02-09 12:46:00,45.0,32.0,30.27,ENE,67,3.0,12.0,59,0.00,,,0.00,Rainwise IP-100,2013-02-09 18:46:00,
2013-02-09 12:51:00,46.0,31.0,30.26,East,90,9.0,12.0,55,0.00,,,0.00,Rainwise IP-100,2013-02-09 18:51:00,
2013-02-09 12:56:00,46.0,31.0,30.26,ESE,112,11.0,11.0,56,0.00,,,0.00,Rainwise IP-100,2013-02-09 18:56:00,
2013-02-09 13:01:00,45.0,31.0,30.25,NNW,337,1.0,17.0,56,0.00,,,0.00,Rainwise IP-100,2013-02-09 19:01:00,
2013-02-09 13:06:00,46.0,31.0,30.25,ESE,112,9.0,12.0,56,0.00,,,0.00,Rainwise IP-100,2013-02-09 19:06:00,
2013-02-09 13:12:00,48.0,32.0,30.25,South,180,0.0,10.0,54,0.00,,,0.00,Rainwise IP-100,2013-02-09 19:12:00,
2013-02-09 13:17:00,47.0,32.0,30.25,East,90,9.0,10.0,55,0.00,,,0.00,Rainwise IP-100,2013-02-09 19:17:00,
2013-02-09 13:22:00,46.0,31.0,30.25,ESE,112,8.0,13.0,56,0.00,,,0.00,Rainwise IP-100,2013-02-09 19:22:00,
2013-02-09 13:27:00,47.0,32.0,30.25,SE,135,7.0,10.0,55,0.00,,,0.00,Rainwise IP-100,2013-02-09 19:27:00,
2013-02-09 13:32:00,48.0,32.0,30.23,ESE,112,6.0,9.0,52,0.00,,,0.00,Rainwise IP-100,2013-02-09 19:32:00,
2013-02-09 13:37:00,48.0,32.0,30.23,ENE,67,3.0,10.0,53,0.00,,,0.00,Rainwise IP-100,2013-02-09 19:37:00,
2013-02-09 13:42:00,48.0,32.0,30.22,East,90,6.0,9.0,52,0.00,,,0.00,Rainwise IP-100,2013-02-09 19:42:00,
2013-02-09 13:47:00,46.0,31.0,30.22,East,90,9.0,12.0,55,0.00,,,0.00,Rainwise IP-100,2013-02-09 19:47:00,
2013-02-09 13:52:00,46.0,31.0,30.23,ENE,67,12.0,14.0,55,0.00,,,0.00,Rainwise IP-100,2013-02-09 19:52:00,
2013-02-09 13:57:00,47.0,31.0,30.23,SE,135,9.0,15.0,54,0.00,,,0.00,Rainwise IP-100,2013-02-09 19:57:00,
2013-02-09 14:02:00,48.0,32.0,30.23,East,90,10.0,11.0,54,0.00,,,0.00,Rainwise IP-100,2013-02-09 20:02:00,
2013-02-09 14:07:00,47.0,31.0,30.23,NE,45,2.0,10.0,53,0.00,,,0.00,Rainwise IP-100,2013-02-09 20:07:00,
2013-02-09 14:12:00,48.0,32.0,30.22,East,90,7.0,10.0,53,0.00,,,0.00,Rainwise IP-100,2013-02-09 20:12:00,
2013-02-09 14:17:00,48.0,32.0,30.22,East,90,7.0,11.0,53,0.00,,,0.00,Rainwise IP-100,2013-02-09 20:17:00,
2013-02-09 14:22:00,48.0,31.0,30.22,NE,45,4.0,13.0,51,0.00,,,0.00,Rainwise IP-100,2013-02-09 20:22:00,
2013-02-09 14:27:00,47.0,31.0,30.22,East,90,7.0,11.0,52,0.00,,,0.00,Rainwise IP-100,2013-02-09 20:27:00,
2013-02-09 14:32:00,47.0,31.0,30.21,East,90,5.0,12.0,54,0.00,,,0.00,Rainwise IP-100,2013-02-09 20:32:00,
2013-02-09 14:37:00,47.0,31.0,30.21,ESE,112,13.0,13.0,53,0.00,,,0.00,Rainwise IP-100,2013-02-09 20:37:00,
2013-02-09 14:42:00,47.0,31.0,30.21,NE,45,3.0,15.0,53,0.00,,,0.00,Rainwise IP-100,2013-02-09 20:42:00,
2013-02-09 14:47:00,47.0,31.0,30.21,SW,225,1.0,12.0,53,0.00,,,0.00,Rainwise IP-100,2013-02-09 20:47:00,
2013-02-09 14:52:00,47.0,31.0,30.21,SE,135,9.0,13.0,53,0.00,,,0.00,Rainwise IP-100,2013-02-09 20:52:00,
2013-02-09 14:57:00,47.0,31.0,30.21,SW,225,1.0,12.0,54,0.00,,,0.00,Rainwise IP-100,2013-02-09 20:57:00,
2013-02-09 15:02:00,47.0,31.0,30.21,ESE,112,13.0,16.0,53,0.00,,,0.00,Rainwise IP-100,2013-02-09 21:02:00,
2013-02-09 15:07:00,48.0,32.0,30.21,East,90,6.0,13.0,53,0.00,,,0.00,Rainwise IP-100,2013-02-09 21:07:00,
2013-02-09 15:12:00,48.0,32.0,30.21,NE,45,9.0,10.0,53,0.00,,,0.00,Rainwise IP-100,2013-02-09 21:12:00,
2013-02-09 15:17:00,48.0,31.0,30.21,ENE,67,6.0,12.0,51,0.00,,,0.00,Rainwise IP-100,2013-02-09 21:17:00,
2013-02-09 15:22:00,48.0,32.0,30.21,ENE,67,2.0,12.0,52,0.00,,,0.00,Rainwise IP-100,2013-02-09 21:22:00,
2013-02-09 15:27:00,47.0,31.0,30.21,East,90,7.0,12.0,54,0.00,,,0.00,Rainwise IP-100,2013-02-09 21:27:00,
2013-02-09 15:32:00,47.0,31.0,30.21,ESE,112,5.0,10.0,54,0.00,,,0.00,Rainwise IP-100,2013-02-09 21:32:00,
2013-02-09 15:37:00,47.0,32.0,30.21,ESE,112,8.0,10.0,55,0.00,,,0.00,Rainwise IP-100,2013-02-09 21:37:00,
2013-02-09 15:42:00,47.0,31.0,30.21,ESE,112,5.0,10.0,54,0.00,,,0.00,Rainwise IP-100,2013-02-09 21:42:00,
2013-02-09 15:47:00,47.0,32.0,30.21,East,90,7.0,10.0,55,0.00,,,0.00,Rainwise IP-100,2013-02-09 21:47:00,
2013-02-09 15:52:00,47.0,32.0,30.20,East,90,6.0,11.0,55,0.00,,,0.00,Rainwise IP-100,2013-02-09 21:52:00,
2013-02-09 15:57:00,47.0,32.0,30.20,SSE,157,2.0,12.0,55,0.00,,,0.00,Rainwise IP-100,2013-02-09 21:57:00,
2013-02-09 16:02:00,47.0,32.0,30.19,East,90,7.0,11.0,55,0.00,,,0.00,Rainwise IP-100,2013-02-09 22:02:00,
2013-02-09 16:07:00,47.0,32.0,30.19,ENE,67,0.0,10.0,56,0.00,,,0.00,Rainwise IP-100,2013-02-09 22:07:00,
2013-02-09 16:12:00,47.0,32.0,30.18,East,90,6.0,9.0,56,0.00,,,0.00,Rainwise IP-100,2013-02-09 22:12:00,
2013-02-09 16:17:00,47.0,32.0,30.18,East,90,9.0,14.0,56,0.00,,,0.00,Rainwise IP-100,2013-02-09 22:17:00,
2013-02-09 16:22:00,47.0,32.0,30.17,East,90,6.0,11.0,56,0.00,,,0.00,Rainwise IP-100,2013-02-09 22:22:00,
2013-02-09 16:27:00,47.0,32.0,30.17,ENE,67,4.0,9.0,56,0.00,,,0.00,Rainwise IP-100,2013-02-09 22:27:00,
2013-02-09 16:32:00,47.0,32.0,30.17,NE,45,7.0,11.0,56,0.00,,,0.00,Rainwise IP-100,2013-02-09 22:32:00,
2013-02-09 16:37:00,47.0,32.0,30.17,ESE,112,8.0,15.0,56,0.00,,,0.00,Rainwise IP-100,2013-02-09 22:37:00,
2013-02-09 16:42:00,47.0,32.0,30.17,SE,135,3.0,10.0,56,0.00,,,0.00,Rainwise IP-100,2013-02-09 22:42:00,
2013-02-09 16:47:00,47.0,32.0,30.17,East,90,6.0,12.0,56,0.00,,,0.00,Rainwise IP-100,2013-02-09 22:47:00,
2013-02-09 16:52:00,47.0,32.0,30.17,ESE,112,5.0,9.0,56,0.00,,,0.00,Rainwise IP-100,2013-02-09 22:52:00,
2013-02-09 16:57:00,47.0,32.0,30.17,ESE,112,7.0,12.0,57,0.00,,,0.00,Rainwise IP-100,2013-02-09 22:57:00,
2013-02-09 17:02:00,47.0,32.0,30.17,ESE,112,9.0,10.0,57,0.00,,,0.00,Rainwise IP-100,2013-02-09 23:02:00,
2013-02-09 17:07:00,46.0,32.0,30.17,East,90,6.0,10.0,57,0.00,,,0.00,Rainwise IP-100,2013-02-09 23:07:00,
2013-02-09 17:12:00,46.0,32.0,30.16,East,90,4.0,9.0,57,0.00,,,0.00,Rainwise IP-100,2013-02-09 23:12:00,
2013-02-09 17:17:00,46.0,32.0,30.16,ENE,67,2.0,11.0,58,0.00,,,0.00,Rainwise IP-100,2013-02-09 23:17:00,
2013-02-09 17:22:00,46.0,32.0,30.16,ENE,67,1.0,8.0,58,0.00,,,0.00,Rainwise IP-100,2013-02-09 23:22:00,
2013-02-09 17:27:00,46.0,32.0,30.16,East,90,0.0,10.0,58,0.00,,,0.00,Rainwise IP-100,2013-02-09 23:27:00,
2013-02-09 17:32:00,46.0,32.0,30.17,East,90,6.0,10.0,58,0.00,,,0.00,Rainwise IP-100,2013-02-09 23:32:00,
2013-02-09 17:37:00,46.0,33.0,30.17,ENE,67,3.0,8.0,60,0.00,,,0.00,Rainwise IP-100,2013-02-09 23:37:00,
2013-02-09 17:42:00,46.0,33.0,30.17,East,90,6.0,8.0,60,0.00,,,0.00,Rainwise IP-100,2013-02-09 23:42:00,
2013-02-09 17:47:00,46.0,33.0,30.17,ENE,67,4.0,8.0,60,0.00,,,0.00,Rainwise IP-100,2013-02-09 23:47:00,
2013-02-09 17:52:00,46.0,33.0,30.16,ENE,67,8.0,9.0,60,0.00,,,0.00,Rainwise IP-100,2013-02-09 23:52:00,
2013-02-09 17:57:00,45.0,32.0,30.16,NE,45,4.0,9.0,61,0.00,,,0.00,Rainwise IP-100,2013-02-09 23:57:00,
2013-02-09 18:02:00,45.0,33.0,30.16,East,90,6.0,8.0,62,0.00,,,0.00,Rainwise IP-100,2013-02-10 00:02:00,
2013-02-09 18:07:00,45.0,33.0,30.16,ENE,67,10.0,10.0,62,0.00,,,0.00,Rainwise IP-100,2013-02-10 00:07:00,
2013-02-09 18:12:00,45.0,33.0,30.15,ENE,67,9.0,11.0,62,0.00,,,0.00,Rainwise IP-100,2013-02-10 00:12:00,
2013-02-09 18:17:00,45.0,33.0,30.15,East,90,3.0,12.0,62,0.00,,,0.00,Rainwise IP-100,2013-02-10 00:17:00,
2013-02-09 18:22:00,45.0,33.0,30.15,East,90,9.0,10.0,62,0.00,,,0.00,Rainwise IP-100,2013-02-10 00:22:00,
2013-02-09 18:27:00,45.0,33.0,30.15,ENE,67,6.0,10.0,63,0.00,,,0.00,Rainwise IP-100,2013-02-10 00:27:00,
2013-02-09 18:32:00,45.0,33.0,30.15,ENE,67,2.0,10.0,62,0.00,,,0.00,Rainwise IP-100,2013-02-10 00:32:00,
2013-02-09 18:37:00,45.0,33.0,30.15,ESE,112,3.0,10.0,62,0.00,,,0.00,Rainwise IP-100,2013-02-10 00:37:00,
2013-02-09 18:42:00,45.0,33.0,30.14,NE,45,3.0,11.0,62,0.00,,,0.00,Rainwise IP-100,2013-02-10 00:42:00,
2013-02-09 18:47:00,45.0,32.0,30.14,ENE,67,8.0,10.0,61,0.00,,,0.00,Rainwise IP-100,2013-02-10 00:47:00,
2013-02-09 18:52:00,45.0,33.0,30.14,East,90,7.0,10.0,62,0.00,,,0.00,Rainwise IP-100,2013-02-10 00:52:00,
2013-02-09 18:57:00,45.0,33.0,30.14,ENE,67,7.0,10.0,63,0.00,,,0.00,Rainwise IP-100,2013-02-10 00:57:00,
2013-02-09 19:02:00,45.0,33.0,30.13,ENE,67,10.0,12.0,62,0.00,,,0.00,Rainwise IP-100,2013-02-10 01:02:00,
2013-02-09 19:07:00,45.0,32.0,30.13,ENE,67,13.0,13.0,61,0.00,,,0.00,Rainwise IP-100,2013-02-10 01:07:00,
2013-02-09 19:12:00,45.0,32.0,30.13,NE,45,6.0,13.0,61,0.00,,,0.00,Rainwise IP-100,2013-02-10 01:12:00,
2013-02-09 19:17:00,45.0,33.0,30.13,ENE,67,7.0,12.0,63,0.00,,,0.00,Rainwise IP-100,2013-02-10 01:17:00,
2013-02-09 19:22:00,45.0,33.0,30.13,ENE,67,6.0,10.0,62,0.00,,,0.00,Rainwise IP-100,2013-02-10 01:22:00,
2013-02-09 19:27:00,45.0,32.0,30.13,NE,45,9.0,10.0,61,0.00,,,0.00,Rainwise IP-100,2013-02-10 01:27:00,
2013-02-09 19:32:00,45.0,33.0,30.13,ESE,112,0.0,10.0,62,0.00,,,0.00,Rainwise IP-100,2013-02-10 01:32:00,
2013-02-09 19:37:00,44.0,32.0,30.13,East,90,7.0,9.0,63,0.00,,,0.00,Rainwise IP-100,2013-02-10 01:37:00,
2013-02-09 19:42:00,45.0,33.0,30.13,East,90,5.0,9.0,63,0.00,,,0.00,Rainwise IP-100,2013-02-10 01:42:00,
2013-02-09 19:47:00,45.0,32.0,30.13,ESE,112,6.0,11.0,61,0.00,,,0.00,Rainwise IP-100,2013-02-10 01:47:00,
2013-02-09 19:52:00,45.0,32.0,30.12,ESE,112,10.0,13.0,60,0.00,,,0.00,Rainwise IP-100,2013-02-10 01:52:00,
2013-02-09 19:57:00,45.0,32.0,30.12,NE,45,5.0,12.0,61,0.00,,,0.00,Rainwise IP-100,2013-02-10 01:57:00,
2013-02-09 20:02:00,45.0,32.0,30.12,East,90,7.0,12.0,60,0.00,,,0.00,Rainwise IP-100,2013-02-10 02:02:00,
2013-02-09 20:07:00,45.0,33.0,30.12,East,90,4.0,10.0,62,0.00,,,0.00,Rainwise IP-100,2013-02-10 02:07:00,
2013-02-09 20:12:00,45.0,33.0,30.12,ESE,112,6.0,9.0,62,0.00,,,0.00,Rainwise IP-100,2013-02-10 02:12:00,
2013-02-09 20:17:00,45.0,33.0,30.12,ESE,112,6.0,10.0,62,0.00,,,0.00,Rainwise IP-100,2013-02-10 02:17:00,
2013-02-09 20:22:00,45.0,33.0,30.12,East,90,4.0,7.0,63,0.00,,,0.00,Rainwise IP-100,2013-02-10 02:22:00,
2013-02-09 20:27:00,45.0,32.0,30.12,ENE,67,1.0,8.0,61,0.00,,,0.00,Rainwise IP-100,2013-02-10 02:27:00,
2013-02-09 20:32:00,45.0,32.0,30.12,ESE,112,4.0,8.0,61,0.00,,,0.00,Rainwise IP-100,2013-02-10 02:32:00,
2013-02-09 20:37:00,45.0,32.0,30.12,East,90,3.0,11.0,60,0.00,,,0.00,Rainwise IP-100,2013-02-10 02:37:00,
2013-02-09 20:42:00,45.0,32.0,30.12,East,90,7.0,10.0,60,0.00,,,0.00,Rainwise IP-100,2013-02-10 02:42:00,
2013-02-09 20:47:00,45.0,32.0,30.12,East,90,1.0,10.0,60,0.00,,,0.00,Rainwise IP-100,2013-02-10 02:47:00,
2013-02-09 20:52:00,45.0,32.0,30.11,NE,45,3.0,6.0,60,0.00,,,0.00,Rainwise IP-100,2013-02-10 02:52:00,
2013-02-09 20:57:00,45.0,32.0,30.11,East,90,5.0,7.0,60,0.00,,,0.00,Rainwise IP-100,2013-02-10 02:57:00,
2013-02-09 21:02:00,45.0,32.0,30.11,East,90,4.0,10.0,60,0.00,,,0.00,Rainwise IP-100,2013-02-10 03:02:00,
2013-02-09 21:07:00,45.0,32.0,30.11,ESE,112,2.0,8.0,59,0.00,,,0.00,Rainwise IP-100,2013-02-10 03:07:00,
2013-02-09 21:12:00,45.0,32.0,30.11,ESE,112,6.0,9.0,60,0.00,,,0.00,Rainwise IP-100,2013-02-10 03:12:00,
2013-02-09 21:17:00,45.0,32.0,30.11,East,90,6.0,9.0,60,0.00,,,0.00,Rainwise IP-100,2013-02-10 03:17:00,
2013-02-09 21:22:00,45.0,32.0,30.11,ESE,112,6.0,9.0,60,0.00,,,0.00,Rainwise IP-100,2013-02-10 03:22:00,
2013-02-09 21:27:00,45.0,32.0,30.11,East,90,3.0,9.0,60,0.00,,,0.00,Rainwise IP-100,2013-02-10 03:27:00,
2013-02-09 21:32:00,45.0,32.0,30.11,SE,135,4.0,9.0,60,0.00,,,0.00,Rainwise IP-100,2013-02-10 03:32:00,
2013-02-09 21:37:00,45.0,32.0,30.11,SSE,157,2.0,5.0,60,0.00,,,0.00,Rainwise IP-100,2013-02-10 03:37:00,
2013-02-09 21:42:00,45.0,32.0,30.11,East,90,1.0,6.0,61,0.00,,,0.00,Rainwise IP-100,2013-02-10 03:42:00,
2013-02-09 21:47:00,45.0,32.0,30.11,ENE,67,1.0,6.0,61,0.00,,,0.00,Rainwise IP-100,2013-02-10 03:47:00,
2013-02-09 21:52:00,45.0,32.0,30.11,ESE,112,4.0,8.0,60,0.00,,,0.00,Rainwise IP-100,2013-02-10 03:52:00,
2013-02-09 21:57:00,45.0,32.0,30.11,East,90,5.0,9.0,60,0.00,,,0.00,Rainwise IP-100,2013-02-10 03:57:00,
2013-02-09 22:02:00,45.0,32.0,30.10,ESE,112,5.0,7.0,60,0.00,,,0.00,Rainwise IP-100,2013-02-10 04:02:00,
2013-02-09 22:07:00,45.0,32.0,30.10,SE,135,3.0,8.0,60,0.00,,,0.00,Rainwise IP-100,2013-02-10 04:07:00,
2013-02-09 22:12:00,45.0,32.0,30.10,East,90,6.0,6.0,60,0.00,,,0.00,Rainwise IP-100,2013-02-10 04:12:00,
2013-02-09 22:17:00,45.0,32.0,30.10,ESE,112,3.0,7.0,60,0.00,,,0.00,Rainwise IP-100,2013-02-10 04:17:00,
2013-02-09 22:22:00,46.0,32.0,30.09,SSE,157,3.0,6.0,59,0.00,,,0.00,Rainwise IP-100,2013-02-10 04:22:00,
2013-02-09 22:27:00,46.0,32.0,30.09,East,90,4.0,6.0,59,0.00,,,0.00,Rainwise IP-100,2013-02-10 04:27:00,
2013-02-09 22:32:00,46.0,32.0,30.09,East,90,3.0,6.0,59,0.00,,,0.00,Rainwise IP-100,2013-02-10 04:32:00,
2013-02-09 22:37:00,46.0,32.0,30.09,NE,45,3.0,4.0,59,0.00,,,0.00,Rainwise IP-100,2013-02-10 04:37:00,
2013-02-09 22:42:00,46.0,32.0,30.09,ESE,112,0.0,5.0,58,0.00,,,0.00,Rainwise IP-100,2013-02-10 04:42:00,
2013-02-09 22:47:00,46.0,32.0,30.09,ESE,112,4.0,6.0,57,0.00,,,0.00,Rainwise IP-100,2013-02-10 04:47:00,
2013-02-09 22:52:00,46.0,32.0,30.09,East,90,1.0,5.0,57,0.00,,,0.00,Rainwise IP-100,2013-02-10 04:52:00,
2013-02-09 22:57:00,46.0,32.0,30.09,East,90,2.0,4.0,58,0.00,,,0.00,Rainwise IP-100,2013-02-10 04:57:00,
2013-02-09 23:00:00,46.0,32.0,30.09,East,90,5.0,6.0,58,0.00,,,0.00,Rainwise IP-100,2013-02-10 05:00:00,
2013-02-09 23:05:00,46.0,35.0,30.09,East,90,1.0,5.0,63,0.00,,,0.00,Rainwise IP-100,2013-02-10 05:05:00,
2013-02-09 23:10:00,46.0,33.0,30.08,East,90,3.0,4.0,61,0.00,,,0.00,Rainwise IP-100,2013-02-10 05:10:00,
2013-02-09 23:15:00,46.0,32.0,30.08,East,90,4.0,6.0,58,0.00,,,0.00,Rainwise IP-100,2013-02-10 05:15:00,
2013-02-09 23:20:00,46.0,32.0,30.08,ESE,112,4.0,6.0,58,0.00,,,0.00,Rainwise IP-100,2013-02-10 05:20:00,
2013-02-09 23:25:00,46.0,32.0,30.08,ESE,112,4.0,7.0,57,0.00,,,0.00,Rainwise IP-100,2013-02-10 05:25:00,
2013-02-09 23:30:00,46.0,32.0,30.07,ESE,112,5.0,5.0,57,0.00,,,0.00,Rainwise IP-100,2013-02-10 05:30:00,
2013-02-09 23:35:00,46.0,32.0,30.07,East,90,3.0,7.0,57,0.00,,,0.00,Rainwise IP-100,2013-02-10 05:35:00,
2013-02-09 23:40:00,46.0,32.0,30.07,East,90,2.0,7.0,58,0.00,,,0.00,Rainwise IP-100,2013-02-10 05:40:00,
2013-02-09 23:45:00,46.0,32.0,30.07,East,90,6.0,6.0,58,0.00,,,0.00,Rainwise IP-100,2013-02-10 05:45:00,
2013-02-09 23:50:00,46.0,32.0,30.08,ESE,112,1.0,6.0,58,0.00,,,0.00,Rainwise IP-100,2013-02-10 05:50:00,
2013-02-09 23:55:00,46.0,32.0,30.08,ESE,112,5.0,6.0,57,0.00,,,0.00,Rainwise IP-100,2013-02-10 05:55:00,